Regional Weather Roundup
Issued by NWS

Home | Current Version | Previous Version | Graphics & Text | Print | Product List | Glossary On
Versions: 1 2 3 4 5 6 7 8 9 10 11 12 13 14 15 16 17 18 19 20 21 22 23 24 25 26 27 28 29 30 31 32 33 34 35 36 37 38 39 40 41 42 43 44 45 46 47 48 49 50
000
ASUS43 KMKX 250511
RWRWI

WISCONSIN REGIONAL WEATHER ROUNDUP
NATIONAL WEATHER SERVICE MILWAUKEE/SULLIVAN WI
1200 AM CDT TUE JUL 25 2017

NOTE: "FAIR" INDICATES FEW OR NO CLOUDS BELOW 12,000 FEET WITH NO
SIGNIFICANT WEATHER AND/OR OBSTRUCTIONS TO VISIBILITY.

WIZ001-002-006>008-014>016-023>028-250600-
NORTHWEST WISCONSIN

CITY           SKY/WX    TMP DP  RH WIND       PRES   REMARKS
SUPERIOR ARPT  NOT AVBL
ASHLAND        FOG       52  52 100 CALM      30.07S VSB 1/2
HAYWARD        CLOUDY    59  56  89 CALM      30.08S
SIREN          PTCLDY    63  58  82 S5        30.07R
CUMBERLAND     CLOUDY    59  55  88 S7        30.07F
RICE LAKE      CLOUDY    62  57  84 SE3       30.09S
CHETEK         CLOUDY    62  58  89 SE9       30.08R
LADYSMITH      PTCLDY    62  58  84 SE3       30.12R
EAU CLAIRE     CLEAR     60  57  89 SE3       30.08R
MENOMONIE      CLEAR     61  60  94 E3        30.08R
NEW RICHMOND   PTCLDY    63  57  81 S5        30.07R
OSCEOLA        MOCLDY    65  59  82 S5        30.10R
$$

WIZ003>005-009-010-017-018-250600-
NORTH CENTRAL WISCONSIN

CITY           SKY/WX    TMP DP  RH WIND       PRES   REMARKS
MANITOWISH WTR CLOUDY    56  56 100 CALM      30.11S
ARBOR VITAE    CLOUDY    62  56  82 S3        30.12R
WOODRUFF       CLOUDY    62  56  82 S3        30.12R
RHINELANDER    PTCLDY    61  55  81 S3        30.13S
EAGLE RIVER    CLOUDY    59  52  78 CALM      30.13R
LAND O LAKES   CLOUDY    53  52  99 CALM      30.14R
PHILLIPS       PTCLDY    58  57  98 CALM      30.11S
TOMAHAWK         N/A     57  54  87 CALM      30.13R
MEDFORD        MOCLDY    60  55  85 CALM      30.12R
MERRILL        PTCLDY    61  55  79 S3        30.13R
$$

WIZ029-030-035-036-043>047-250600-
CENTRAL WISCONSIN

CITY           SKY/WX    TMP DP  RH WIND       PRES   REMARKS
WAUSAU         MOCLDY    61  52  72 E3        30.11S
MOSINEE        PTCLDY    57  52  82 E3        30.14R
MARSHFIELD     PTCLDY    61  54  77 CALM      30.12R
STEVENS POINT  PTCLDY    57  52  84 CALM      30.13S
WAUPACA        PTCLDY    60  57  91 CALM      30.13S
WAUTOMA        NOT AVBL
WISC RAPIDS    PTCLDY    62  56  80 SE6       30.13R
CAMP DOUGLAS   CLEAR     54  54 100 SE3       30.11R FOG
$$

WIZ011>013-019>022-031-037>040-048>050-250600-
NORTHEAST WISCONSIN

CITY           SKY/WX    TMP DP  RH WIND       PRES   REMARKS
ANTIGO         CLEAR     56  51  84 S5        30.14S
SHAWANO        CLEAR     62  55  77 CALM      30.13R
OCONTO         PTCLDY    55  53  94 CALM      30.13R
STURGEON BAY     N/A     57  53  86 CALM      30.15R
GREEN BAY      CLEAR     57  57 100 CALM      30.13S
MANITOWOC      CLEAR     57  50  77 CALM      30.14R
APPLETON       CLEAR     63  41  45 CALM      30.12S
CLINTONVILLE   CLEAR    N/A N/A N/A CALM      30.13R
OSHKOSH        CLEAR     61  52  72 S5        30.13R
$$

WIZ032>034-041-042-053>061-250600-
SOUTHWEST WISCONSIN

CITY           SKY/WX    TMP DP  RH WIND       PRES   REMARKS
LA CROSSE      CLEAR     65  61  87 E6        30.09R
SPARTA         CLEAR     56  55  97 CALM      30.11R
VIROQUA        CLEAR     62  60  92 CALM      30.11S
BOSCOBEL       CLEAR     59  57  93 CALM      30.11R
PRAIRIE DU CHI CLEAR     62  60  93 SE3       30.09S
PLATTEVILLE    CLEAR     64  62  94 E6        30.12R
$$

WIZ056-057-062-063-064-067-068-250600-
SOUTH CENTRAL WISCONSIN

CITY           SKY/WX    TMP DP  RH WIND       PRES   REMARKS
REEDSBURG      PTCLDY    60  60 100 CALM      30.12R
BARABOO/DELLS  PTCLDY    60  55  83 CALM      30.12S
LONE ROCK      PTCLDY    61  59  93 CALM      30.11R
MINERAL POINT  PTCLDY    64  61  88 E5        30.12R
MADISON        CLEAR     63  54  72 SE6       30.12S
MIDDLETON      CLEAR     61  57  88 SE5       30.12F
WATERTOWN      CLEAR     55  55 100 CALM      30.13S
MONROE         CLEAR     61  55  82 E6        30.13S
JANESVILLE     CLEAR     61  59  94 SE5       30.13R
$$

WIZ051-052-058>065-066-070>072-250600-
SOUTHEAST WISCONSIN

CITY           SKY/WX    TMP DP  RH WIND       PRES   REMARKS
MILWAUKEE      CLEAR     64  57  78 CALM      30.13R
WAUKESHA       CLEAR     55  52  88 CALM      30.15R
MILWAUKEE/TIMM CLEAR     55  50  82 CALM      30.14R
RACINE         CLEAR     62  58  86 CALM      30.15R
KENOSHA        CLEAR     59  56  89 N3        30.14R
FOND DU LAC    CLEAR     56  50  80 S5        30.14R
SHEBOYGAN      CLEAR     53  53 100 W3        30.14R
WEST BEND      CLEAR     54  52  94 CALM      30.15R
JUNEAU         CLEAR     56  52  87 CALM      30.15S
$$

LSZ147-162-250600-
LAKE SUPERIOR

STATION/POSITION TIME  TEMP    WIND        PRES    WAVE
                       AIR SEA DIR/SP/G            HT/PER
                 (UTC) (F)     (DEG/KT/KT) (MB)    (FT/S)
W MID LAKE BUOY  0450   57 50  110/  8/  8 1017.6F   0
DEVILS ISLAND    0400   63     140/  9/ 10 1017.4F
SAXON HARBOR     0430   59     200/  6/  7 1017.3S
$$

LMZ867-665-643>646-250600-
LAKE MICHIGAN

STATION/POSITION TIME  TEMP    WIND        PRES    WAVE
                       AIR SEA DIR/SP/G            HT/PER
                 (UTC) (F)     (DEG/KT/KT) (MB)    (FT/S)
CHAMBERS ISLAND  0440   58     160/  3/  4 1019.3S
S GREEN BAY BUOY 0500   69 72  150/  6/  8 1020.1
N MID LAKE BUOY  0450   66 66  290/  4/  4 1021.0R   0
NORTHPORT PIER   0440   60     200/  3/  4 1020.0S
KEWAUNEE LAKESHO 0448   58     290/  5/  5 1019.4R
SHEBOYGAN LAKESH 0500   66      40/  4/  5 1020.1R
PORT WASHINGTON  0430   62     270/  2/  3 1021.0R
ATWATER BUOY     0309   67 68   40/  8/ 10 1019.7F
MILWAUKEE LAKESH 0450   66      40/  6/  6   N/A
S MID LAKE BUOY  0450   68 70   40/ 10/ 12 1019.7R   3/ 6
KENOSHA   LAKESH 0500   67      40/  7/  9 1020.3
$$

TC  - TEMPERATURE IN CELSIUS
VSB - VISIBILITY IN STATUTE MILES
WCI - WIND CHILL INDEX
HX  - HEAT INDEX





USA.gov is the U.S. government's official web portal to all federal, state and local government web resources and services.